Temperature
18 18 19 19 18 18 17 17 17 17 16 16 15 15 15 15 15 15 15 15 15 15 14 14 14 14 14 14 14 14 14 14 15 15 15 15 15 15 15 15 14 13 12
20 19 19 19 19 18 18 18 18 17 16 16 15 14 14 14 14 15 15 15 15 14 14 14 14 14 14 14 14 14 14 14 15 15 14 14 14 14 14 14 13 13 12
20 19 19 19 19 19 18 18 18 18 17 15 15 14 14 14 14 15 15 15 15 14 14 14 14 14 14 14 14 14 14 14 14 14 14 14 14 14 14 14 13 13 12
20 19 19 19 19 19 19 19 19 18 17 15 14 14 14 14 15 15 15 15 15 14 14 14 14 14 14 14 14 14 14 13 13 14 14 13 13 13 14 14 14 13 13
20 19 19 19 19 19 19 19 19 19 17 16 15 14 14 14 14 15 15 15 15 14 14 14 14 14 14 14 14 14 13 13 13 13 13 13 13 13 13 13 13 13 13
20 19 19 18 19 19 19 19 19 18 17 16 15 14 14 14 14 15 15 15 15 15 15 14 14 14 14 14 14 14 13 13 13 13 12 12 12 12 13 13 13 13 13
20 19 18 18 18 18 19 19 19 18 17 16 15 15 14 14 14 14 15 15 15 15 15 15 14 14 14 14 14 13 13 13 13 12 12 12 12 12 12 12 12 12 12
20 19 18 17 18 18 18 19 19 19 18 16 16 15 14 14 14 14 15 15 15 15 15 15 14 14 14 14 13 13 13 13 12 12 12 12 12 12 12 12 12 12 12
19 18 18 17 17 17 18 18 19 19 18 17 16 15 15 14 14 14 14 15 15 15 15 14 14 14 14 14 13 13 13 13 12 12 12 12 12 12 12 12 12 12 12
18 18 18 18 17 17 17 17 18 18 18 18 17 16 15 14 14 14 15 15 15 14 14 14 14 14 13 13 13 13 13 13 13 12 12 12 12 11 11 11 11 11 11
18 18 18 17 17 17 17 17 17 18 18 17 17 16 15 15 14 15 15 14 14 14 14 14 13 13 13 13 13 13 13 13 13 12 12 12 11 11 10 10 10 10 10
18 18 18 17 17 17 17 16 17 17 17 17 17 16 15 15 15 15 14 14 14 14 14 14 13 13 13 13 13 13 13 13 13 12 11 11 10 10 9 9 9 9 9
19 18 18 17 17 17 16 16 16 17 17 17 17 16 15 15 15 15 14 14 14 14 14 13 13 13 13 13 13 13 13 13 12 11 11 10 9 9 9 9 9 9 9
19 19 18 18 17 17 16 16 16 16 16 17 16 16 16 15 15 15 14 14 14 14 14 13 13 13 13 13 13 13 13 12 11 11 10 9 9 9 8 8 8 8 9
19 19 19 18 18 17 17 16 16 16 16 16 16 16 16 16 15 15 14 14 13 13 13 13 13 13 13 13 13 13 12 12 11 10 10 9 9 8 8 8 8 8 9
19 19 19 18 18 18 17 17 16 16 16 15 15 15 15 15 15 14 14 13 13 13 12 12 12 12 12 13 12 12 12 11 11 10 9 9 9 8 8 8 8 8 8
19 19 18 19 18 18 18 18 17 16 16 15 15 15 15 15 14 14 13 13 13 12 12 12 12 12 12 12 12 12 11 11 10 10 9 9 8 8 8 8 8 8 8
19 19 19 18 18 18 18 18 18 17 16 15 15 14 14 14 13 13 13 13 12 12 12 12 12 12 12 12 12 11 11 11 10 9 9 8 8 8 7 7 7 7 7
19 19 19 18 18 18 18 18 18 17 17 16 15 14 14 13 13 13 13 12 12 11 11 12 12 12 12 12 12 11 10 10 9 9 8 8 7 7 7 7 7 7 7
19 19 19 19 18 18 18 18 18 17 17 16 15 14 14 13 13 13 12 12 12 11 11 12 12 12 12 12 11 11 10 9 9 8 8 7 7 7 6 6 6 6 6
18 18 19 19 18 18 17 17 17 17 17 16 15 15 14 14 13 13 12 12 12 11 11 12 12 12 11 11 11 10 10 9 8 8 7 7 6 6 6 5 5 5 5
18 18 18 18 18 18 18 17 17 17 17 17 16 15 15 14 14 13 12 12 12 11 11 11 11 11 11 11 11 10 10 9 8 7 7 7 6 5 5 5 5 4 4
17 17 17 17 18 17 17 17 17 16 16 16 16 15 15 14 14 13 13 12 12 12 11 11 11 11 11 11 11 10 10 10 8 7 7 6 6 5 5 4 4 4 4
17 17 17 17 17 17 17 17 17 17 16 16 16 16 15 15 14 14 13 12 12 12 11 11 11 11 11 11 10 10 10 9 9 8 7 6 6 5 5 4 4 4 4
16 16 16 16 17 17 17 17 16 17 17 17 17 16 16 15 14 14 13 12 12 11 11 11 11 11 10 10 10 9 9 8 8 7 7 6 5 5 5 4 4 4 3
16 16 16 16 16 16 16 16 16 16 16 16 16 16 16 15 14 13 13 12 12 11 11 11 10 10 10 10 9 9 8 8 7 6 5 5 4 5 5 4 4 3 2
Wind_Speed
9 14 21 21 20 19 19 18 18 18 19 20 20 20 18 17 15 14 12 11 11 12 12 13 14 15 16 15 14 12 11 11 11 10 9 8 9 9 9 9 8 6 6
12 18 22 21 21 20 19 18 17 17 18 20 20 20 18 16 15 14 12 12 11 12 13 14 16 16 15 13 12 10 9 9 8 7 5 4 5 7 7 7 6 5 5
17 19 21 21 21 20 19 18 17 17 18 20 20 19 18 17 15 14 13 12 12 11 12 13 14 14 13 11 10 9 8 7 6 4 3 3 2 5 5 5 4 4 4
18 19 19 22 21 20 19 18 17 18 19 19 20 19 18 17 16 15 14 13 12 12 11 11 11 11 10 9 8 7 6 5 5 5 3 6 3 4 4 3 2 2 2
15 18 20 22 21 20 18 17 17 18 19 20 20 19 18 17 16 15 14 13 12 11 11 10 10 10 9 8 7 5 4 4 6 4 4 7 4 3 4 3 1 1 0
13 17 21 22 21 20 18 18 18 19 19 20 19 19 18 16 15 14 14 12 11 10 10 10 9 9 8 7 5 4 4 6 7 4 7 7 3 3 3 2 1 0 1
14 16 21 22 21 20 19 18 19 19 19 19 19 18 17 15 14 14 14 12 11 9 9 9 9 8 7 6 4 4 6 8 8 6 6 5 2 3 4 5 5 4 5
17 16 19 22 21 20 19 19 20 20 20 19 18 17 15 14 14 14 15 13 11 9 9 9 9 8 6 5 4 5 7 7 7 9 8 4 3 4 6 7 8 10 12
15 15 15 18 19 20 19 19 20 20 20 19 18 16 14 12 13 15 15 13 11 9 8 8 8 7 6 5 5 7 8 9 11 9 7 4 5 7 10 12 14 16 18
12 13 12 15 16 16 17 19 19 19 19 18 17 16 13 12 14 17 16 13 11 9 8 7 7 7 5 5 7 10 12 13 12 8 6 7 10 12 14 15 16 16 17
13 12 12 12 13 15 15 17 18 18 18 17 17 17 14 12 13 16 16 14 12 10 8 8 7 6 5 6 8 11 12 12 11 8 8 13 15 15 15 15 14 14 15
15 14 13 13 12 13 14 14 14 15 16 16 16 16 13 12 12 14 16 15 13 11 9 8 7 5 4 6 8 11 11 12 11 10 11 14 14 14 14 14 13 13 13
16 16 15 15 13 13 10 11 11 12 13 14 16 16 14 11 10 11 12 12 11 10 7 6 6 6 5 6 8 9 11 11 11 11 12 14 14 13 13 12 12 11 11
16 17 16 16 15 13 12 11 11 10 10 11 14 16 12 8 7 9 8 10 9 8 7 6 6 7 7 8 9 10 10 11 11 13 14 15 14 13 12 11 11 10 10
15 17 18 17 17 15 11 10 11 10 11 13 13 15 14 9 6 7 7 9 9 8 7 7 7 7 6 7 8 9 9 10 11 13 14 15 14 12 11 10 10 10 10
12 15 17 19 18 16 14 13 10 11 13 14 13 15 17 14 10 8 6 7 7 9 9 8 7 6 4 5 5 7 9 10 11 12 13 14 13 12 10 10 10 10 10
11 13 16 19 19 19 17 15 11 12 13 11 13 17 18 16 14 10 6 5 8 11 11 10 7 6 4 4 4 5 7 9 10 11 12 13 12 10 9 8 9 10 11
9 11 15 17 18 19 17 15 11 12 12 11 14 16 18 18 17 12 7 6 11 12 10 5 5 4 4 4 3 2 3 7 8 10 10 11 10 9 7 7 7 8 10
11 11 13 15 18 19 18 15 13 11 11 12 14 14 16 17 18 14 8 8 13 9 5 5 3 3 3 2 2 2 2 3 6 8 8 9 9 8 6 5 5 5 7
12 11 12 15 17 18 14 10 9 10 10 9 11 12 16 17 18 15 9 10 11 7 5 5 5 3 3 2 2 3 2 1 3 4 6 7 7 7 6 5 3 2 3
9 9 10 12 14 14 11 12 12 13 12 11 9 13 17 17 18 14 9 9 8 7 7 8 5 4 3 2 3 3 3 2 1 1 3 3 4 4 5 4 2 1 3
9 9 9 11 12 13 14 14 11 12 9 10 9 11 16 18 18 16 13 11 9 8 8 7 5 4 2 2 3 3 1 2 2 2 0 2 2 3 3 1 1 4 6
10 10 9 10 11 12 12 8 5 4 3 3 7 10 11 17 18 16 15 12 11 10 9 7 7 7 4 2 2 4 4 4 2 3 3 2 2 3 2 3 5 7 8
11 9 9 9 10 11 12 12 13 11 10 10 10 9 10 12 15 17 16 14 13 10 10 8 6 5 6 4 2 2 2 3 3 1 3 2 2 2 2 3 7 10 11
7 6 7 7 8 9 12 15 16 12 9 6 8 10 10 9 11 14 15 14 13 11 10 9 7 6 4 5 4 3 2 3 2 2 2 4 3 3 3 4 6 7 11
3 3 4 5 6 8 12 15 17 16 12 12 12 13 11 8 8 11 13 12 12 11 11 10 8 8 5 5 4 4 3 3 2 3 3 3 4 4 3 4 2 4 8
Wind_Direction
159 163 153 146 140 135 132 129 129 131 132 130 126 122 118 114 110 106 103 103 98 92 91 99 117 121 114 108 102 97 91 86 84 79 71 66 71 76 81 78 76 77 79
152 158 153 147 142 138 134 131 131 134 136 135 132 128 123 118 112 107 106 108 107 101 94 93 101 110 108 105 101 98 96 93 89 86 84 70 63 78 84 83 82 86 84
149 155 153 149 145 140 137 135 135 138 140 139 136 131 126 121 115 110 109 111 112 109 103 98 101 105 107 106 103 99 95 88 78 71 115 147 95 84 87 84 81 85 90
150 153 155 152 148 144 141 140 141 144 145 144 140 135 131 127 122 118 114 114 115 114 111 106 105 106 107 105 102 99 90 67 41 39 109 166 162 89 90 90 81 69 62
149 153 158 155 151 148 146 145 146 148 148 147 144 141 137 135 131 127 123 121 120 118 116 112 109 107 106 104 101 95 71 32 18 37 133 158 157 96 91 91 91 73 320
147 152 160 157 155 152 150 149 149 149 150 150 148 146 146 144 141 137 134 133 131 127 123 119 116 114 112 108 100 82 47 21 24 54 139 149 139 93 83 70 67 7 273
150 154 162 161 159 156 155 153 153 152 152 153 152 153 154 154 152 149 147 145 144 138 132 128 125 122 117 109 91 58 30 21 36 69 118 124 98 72 65 56 46 40 32
154 157 165 165 162 161 160 159 158 157 157 158 158 158 159 162 164 162 159 156 155 149 141 137 134 130 123 110 79 49 31 34 68 92 97 85 65 66 66 57 54 54 54
155 159 165 168 167 166 166 165 164 162 162 162 162 161 163 169 171 170 166 165 162 156 150 145 141 135 128 109 76 54 52 80 102 104 94 81 78 81 78 73 70 67 62
159 164 166 167 168 168 170 170 169 167 165 165 164 161 163 170 171 168 169 168 165 161 156 148 141 133 119 90 66 69 85 95 92 95 92 92 92 89 83 78 72 67 62
170 170 169 167 168 168 171 175 172 170 170 169 165 164 163 163 162 165 168 167 166 164 158 149 139 127 103 67 64 82 93 99 89 86 92 98 94 89 82 77 72 67 61
179 179 176 174 172 170 175 175 174 174 175 171 169 170 169 165 163 165 168 168 168 166 159 149 135 121 96 68 70 82 98 100 86 79 95 99 96 91 84 77 71 65 59
182 183 184 182 177 176 176 173 178 177 177 177 178 179 175 172 169 165 165 168 165 160 150 133 111 103 101 87 78 86 106 102 91 83 92 97 98 93 86 78 71 63 55
182 189 186 185 182 182 180 180 183 182 183 185 189 186 176 173 173 170 171 168 166 161 148 131 115 104 98 93 91 97 111 109 101 92 91 95 96 94 88 80 70 61 53
189 191 190 187 187 185 182 184 186 189 190 192 193 191 182 176 175 175 175 172 172 162 145 129 119 112 101 89 89 103 117 120 112 104 100 99 98 94 87 77 66 56 46
205 198 192 191 190 186 187 188 188 191 192 193 197 193 187 182 177 174 167 169 167 157 143 132 127 117 99 90 84 104 124 130 124 117 111 106 103 98 89 76 64 52 42
210 206 196 196 192 190 191 190 189 190 191 193 199 198 190 184 176 170 163 160 158 147 133 122 114 102 89 80 78 101 126 139 139 132 126 121 116 110 99 83 66 53 40
210 205 203 201 196 195 194 192 191 190 191 194 195 196 189 180 170 162 159 157 151 142 132 122 118 97 82 82 85 86 119 145 152 152 147 145 141 135 122 101 77 57 40
224 206 203 204 199 199 198 193 191 187 190 192 191 189 182 173 165 161 158 153 147 136 128 127 112 120 106 97 107 111 119 146 161 165 169 173 169 161 150 130 100 70 40
238 217 206 206 204 201 198 192 190 188 189 187 188 184 174 170 164 158 154 150 145 133 131 127 119 97 101 110 87 77 63 140 161 172 182 186 189 183 170 153 134 93 25
245 230 213 207 208 201 193 190 191 195 194 191 187 178 173 169 165 159 155 152 150 148 150 140 121 107 79 82 97 62 21 30 127 181 189 182 191 187 172 168 185 256 312
240 235 221 212 209 204 200 196 195 194 194 190 178 173 172 169 167 165 160 162 156 146 146 148 136 122 99 74 128 119 80 344 334 5 324 169 138 108 101 92 316 306 301
242 236 230 218 210 205 202 187 155 118 97 145 172 177 176 172 170 167 164 161 160 158 163 162 151 142 143 94 91 143 153 201 260 328 11 57 100 96 69 30 355 335 321
245 245 241 232 217 205 194 185 177 182 184 188 185 177 171 172 170 167 165 163 163 160 160 163 155 147 140 143 112 76 117 141 154 264 326 355 27 82 32 352 339 338 342
245 249 253 251 235 212 197 193 193 194 185 164 158 158 164 169 169 167 165 163 162 160 158 152 146 142 138 148 150 136 109 79 100 148 257 310 329 315 328 320 328 349 3
243 251 260 260 250 223 205 199 198 189 167 157 162 168 169 166 166 168 167 163 161 158 156 151 145 140 135 132 132 134 141 144 154 156 206 260 283 291 301 302 330 5 22
Height
1514 1517 1519 1521 1522 1524 1525 1527 1528 1529 1530 1531 1531 1532 1533 1533 1534 1534 1533 1533 1533 1533 1534 1534 1535 1536 1537 1538 1538 1539 1539 1538 1538 1538 1537 1537 1537 1536 1536 1535 1535 1535 1535
1513 1516 1518 1521 1522 1524 1525 1526 1527 1528 1529 1530 1531 1532 1532 1533 1534 1534 1533 1533 1533 1534 1535 1535 1536 1537 1538 1539 1539 1539 1539 1538 1538 1538 1537 1537 1537 1536 1536 1536 1536 1536 1536
1514 1516 1518 1520 1522 1524 1525 1526 1527 1528 1529 1530 1531 1532 1533 1533 1534 1534 1533 1533 1533 1534 1535 1536 1537 1538 1539 1539 1539 1539 1539 1538 1538 1538 1538 1538 1537 1537 1537 1537 1536 1536 1536
1515 1516 1518 1521 1523 1524 1525 1526 1527 1528 1528 1530 1531 1532 1533 1534 1534 1534 1534 1534 1534 1535 1536 1537 1538 1539 1539 1539 1539 1539 1539 1539 1539 1539 1539 1538 1538 1538 1538 1538 1537 1537 1537
1514 1516 1518 1521 1523 1524 1525 1526 1527 1528 1528 1530 1531 1532 1533 1534 1535 1535 1535 1535 1536 1536 1537 1538 1539 1539 1540 1540 1540 1540 1540 1540 1540 1539 1539 1539 1539 1539 1539 1539 1538 1538 1538
1514 1516 1518 1520 1522 1524 1525 1526 1527 1528 1529 1530 1531 1533 1534 1535 1535 1536 1536 1537 1537 1538 1538 1539 1540 1540 1541 1541 1541 1541 1541 1540 1540 1540 1540 1540 1540 1540 1540 1539 1539 1539 1539
1513 1516 1518 1520 1522 1524 1525 1526 1527 1528 1529 1530 1532 1533 1534 1535 1536 1537 1538 1538 1539 1540 1540 1541 1541 1542 1542 1542 1542 1542 1541 1541 1540 1540 1540 1541 1541 1541 1541 1540 1539 1539 1539
1513 1515 1518 1520 1522 1524 1525 1526 1527 1528 1529 1530 1532 1533 1535 1536 1537 1538 1539 1539 1540 1541 1541 1542 1542 1542 1542 1542 1542 1541 1541 1540 1540 1540 1540 1541 1541 1541 1540 1539 1539 1538 1538
1514 1515 1518 1520 1522 1524 1525 1526 1527 1528 1529 1530 1532 1533 1535 1536 1537 1538 1539 1540 1541 1541 1542 1542 1542 1542 1542 1542 1542 1541 1540 1540 1540 1540 1540 1541 1541 1540 1540 1539 1538 1538 1537
1514 1515 1517 1519 1521 1523 1524 1526 1527 1528 1529 1530 1531 1533 1534 1536 1537 1538 1539 1540 1541 1541 1542 1542 1542 1542 1542 1542 1541 1541 1540 1540 1540 1540 1540 1540 1540 1539 1539 1538 1537 1536 1536
1513 1514 1516 1518 1520 1522 1524 1525 1526 1527 1528 1530 1531 1532 1533 1535 1536 1537 1539 1540 1540 1541 1541 1542 1542 1542 1542 1541 1541 1540 1540 1540 1540 1539 1539 1539 1538 1538 1537 1536 1536 1535 1534
1511 1513 1515 1517 1519 1520 1522 1523 1524 1526 1527 1528 1530 1531 1532 1533 1535 1536 1537 1538 1539 1540 1540 1541 1541 1541 1541 1541 1540 1540 1539 1539 1538 1538 1538 1537 1537 1536 1535 1535 1534 1533 1533
1509 1511 1513 1515 1517 1518 1519 1521 1523 1524 1525 1527 1528 1529 1530 1532 1533 1534 1535 1536 1538 1539 1539 1539 1540 1540 1540 1539 1539 1538 1538 1537 1537 1536 1536 1536 1535 1534 1534 1533 1533 1532 1532
1506 1508 1510 1512 1514 1515 1517 1519 1521 1522 1523 1525 1526 1527 1528 1529 1531 1532 1534 1535 1536 1537 1538 1538 1538 1539 1538 1538 1537 1537 1536 1535 1535 1535 1535 1534 1534 1533 1533 1532 1532 1531 1531
1503 1505 1507 1509 1511 1512 1514 1516 1518 1519 1521 1523 1524 1525 1526 1527 1529 1530 1532 1533 1534 1535 1536 1537 1537 1537 1537 1536 1536 1535 1534 1534 1533 1533 1533 1533 1533 1532 1532 1532 1531 1530 1530
1501 1502 1503 1505 1507 1509 1510 1512 1514 1516 1518 1520 1521 1522 1523 1525 1526 1528 1529 1531 1532 1534 1535 1535 1536 1536 1535 1535 1534 1533 1533 1532 1532 1532 1532 1532 1532 1531 1531 1531 1530 1529 1528
1497 1499 1500 1501 1503 1504 1506 1508 1510 1512 1515 1516 1518 1519 1521 1522 1524 1525 1527 1529 1530 1532 1533 1533 1534 1534 1534 1533 1533 1532 1531 1531 1531 1531 1531 1531 1530 1530 1530 1529 1529 1528 1527
1492 1494 1495 1497 1498 1500 1501 1503 1506 1508 1510 1512 1514 1516 1517 1519 1521 1523 1525 1526 1528 1529 1531 1532 1532 1532 1532 1532 1531 1530 1530 1529 1529 1529 1529 1529 1529 1529 1528 1528 1527 1526 1525
1486 1488 1490 1492 1493 1495 1497 1499 1501 1504 1506 1508 1510 1512 1514 1516 1518 1520 1522 1524 1526 1527 1529 1530 1530 1531 1530 1530 1529 1529 1528 1528 1528 1528 1528 1528 1528 1527 1526 1526 1525 1524 1522
1480 1481 1483 1485 1487 1490 1493 1496 1497 1499 1501 1503 1505 1508 1510 1513 1515 1518 1520 1522 1524 1525 1526 1527 1528 1528 1528 1528 1528 1527 1526 1526 1526 1526 1526 1526 1526 1525 1524 1524 1522 1521 1519
1472 1474 1476 1478 1480 1483 1486 1489 1491 1493 1495 1498 1500 1503 1506 1509 1511 1514 1516 1519 1521 1523 1524 1525 1526 1526 1526 1526 1526 1525 1525 1525 1524 1524 1524 1524 1523 1523 1522 1520 1519 1518 1516
1465 1467 1469 1470 1473 1475 1478 1481 1484 1487 1489 1491 1494 1497 1501 1504 1507 1509 1512 1515 1517 1520 1521 1522 1523 1524 1524 1524 1524 1523 1523 1524 1522 1522 1522 1521 1521 1520 1519 1517 1516 1514 1512
1459 1461 1462 1464 1466 1468 1471 1475 1478 1481 1484 1486 1488 1491 1494 1498 1501 1504 1507 1510 1513 1516 1517 1519 1520 1521 1521 1521 1521 1521 1520 1519 1520 1519 1519 1518 1517 1517 1516 1515 1513 1510 1507
1452 1454 1455 1457 1458 1461 1464 1466 1468 1471 1473 1476 1480 1484 1488 1492 1495 1499 1502 1505 1508 1511 1514 1516 1517 1518 1518 1518 1518 1518 1518 1517 1517 1516 1516 1515 1514 1514 1513 1512 1509 1506 1503
1445 1447 1448 1449 1451 1453 1455 1457 1460 1463 1466 1470 1474 1478 1481 1485 1489 1493 1496 1500 1503 1506 1509 1511 1513 1514 1515 1515 1515 1514 1514 1513 1513 1513 1512 1512 1511 1511 1509 1507 1505 1501 1498
1441 1441 1442 1443 1444 1446 1448 1450 1452 1455 1458 1462 1466 1470 1474 1478 1482 1486 1490 1494 1497 1500 1503 1506 1508 1510 1511 1511 1511 1510 1510 1509 1509 1508 1507 1506 1505 1504 1504 1502 1499 1496 1493